Location: Dalmine
(45.6500°N, 9.6000°E)
Time: 13:05:08
(UTC+00:00)

Daily predictions for brighter satellites

Satellite Brightness Start Highest point End
(mag) Time Altitude Azimuth Time Altitude Azimuth Time Altitude Azimuth
SL-24 R/B 4.4 16:44:37 10° SSE 16:49:07 86° ENE 16:54:09 10° NNW
Cosmos 1626 Rocket 3.9 16:45:32 10° SSE 16:49:44 46° E 16:54:00 10° NNE
Cosmos 1092 Rocket 4.4 16:44:51 10° SSE 16:50:33 41° E 16:56:15 10° NNE
Cosmos 2263 Rocket 4.4 16:47:54 10° W 16:51:56 20° NW 16:55:59 10° N
Cosmos 1898 Rocket 3.8 16:47:55 10° S 16:52:58 50° ESE 16:58:01 10° NNE
Cosmos 923 Rocket 4.1 16:48:46 10° NNW 16:54:08 87° WSW 16:59:26 10° SSE
CZ-4C R/B 3.6 16:53:17 10° N 16:56:25 55° WNW 16:59:34 10° SSW
TELKOM 3 4.1 16:54:34 10° NW 16:56:25 25° N 16:58:23 10° ENE
Cosmos 1680 Rocket 3.5 16:53:10 10° NNW 16:58:26 79° ENE 17:03:38 10° SSE
Nadezhda 4 Rocket 4.0 16:53:01 10° S 16:59:13 78° E 17:05:24 10° N
Meteor 2-10 Rocket 4.3 16:55:54 10° NNW 17:01:10 59° W 17:06:12 10° S
Cosmos 1328 4.4 16:58:21 10° SSE 17:02:01 36° E 17:05:41 10° NNE
CZ-4B R/B 1.9 17:01:55 10° NNE 17:04:59 35° E 17:07:57 10° SSE
CZ-2D R/B 3.7 17:01:37 10° SE 17:05:11 37° ENE 17:08:45 10° N
Landsat 5 4.2 17:02:22 10° N 17:06:07 50° WNW 17:09:49 10° SSW
MOS 1 Rocket 3.8 17:02:48 10° NNE 17:06:42 33° E 17:10:38 10° SSE
NOAA 11 4.5 17:03:43 10° S 17:09:13 76° WSW 17:14:44 10° NNW
Cosmos-2242 3.9 17:06:12 10° NNE 17:09:54 27° ENE 17:13:36 10° SE
NOSS 3-1 (C) 4.2 17:05:02 10° NW 17:12:34 88° NE 17:21:20 10° SE
COSMO-SKYMED 1 2.8 17:09:54 10° NNE 17:14:08 48° E 17:18:20 10° S
Cosmos 1937 Rocket 3.6 17:10:24 10° S 17:15:36 58° ESE 17:20:50 10° NNE
BREEZE-M DEB (TANK) 2.5 17:13:30 10° WNW 17:15:37 35° N 17:17:14 16° ENE
Cosmos 1758 Rocket 4.2 17:12:24 10° SSE 17:16:29 36° E 17:20:36 10° NNE
Aureole 3 3.3 17:14:39 10° NNW 17:17:40 58° W 17:20:36 10° S
USA 290 2.8 17:19:00 10° N 17:21:58 35° ENE 17:24:55 10° SE
NOSS 2-1 (C) 3.5 17:20:31 10° SW 17:23:47 53° NW 17:27:13 10° NNE
CZ-4 R/B 4.5 17:21:05 10° SSE 17:25:08 57° ENE 17:29:14 10° N
Cosmos 1833 Rocket 2.7 17:20:23 10° NNW 17:25:56 56° ENE 17:31:26 10° SE
H-2A R/B 2.4 17:22:55 10° SE 17:27:37 40° ENE 17:32:27 10° N
NOSS 2-1 (D) 3.8 17:26:33 10° WSW 17:29:45 45° NW 17:33:06 10° NNE
Cosmos 1939 Rocket 3.2 17:25:49 10° S 17:29:53 72° W 17:33:55 10° NNW
Helios 1A Rocket 3.7 17:26:39 10° SE 17:30:13 29° ENE 17:33:50 10° N
H-2A R/B 3.2 17:27:04 10° N 17:31:16 45° WNW 17:35:21 10° SW
Cosmos 2344 4.4 17:23:14 10° NW 17:32:30 73° NE 17:45:28 10° SE
Cosmos 1602 Rocket 3.6 17:28:53 10° S 17:33:14 84° W 17:37:40 10° N
Cosmos 44 4.3 17:29:10 10° WSW 17:33:49 44° NW 17:38:47 10° NNE
USA 229 DEB 3.9 17:26:41 10° NW 17:34:02 88° NE 17:41:46 10° SE
USA 229 3.9 17:26:47 10° NW 17:34:09 87° NE 17:41:53 10° SE
Cosmos 2026 Rocket 3.9 17:28:20 10° S 17:34:25 69° E 17:40:39 10° NNE
CZ-3B R/B 2.1 17:32:24 10° NW 17:35:07 72° NE 17:43:21 10° ESE
Feng Yun 1-1 Rocket 4.3 17:29:39 10° SSE 17:35:08 89° WSW 17:40:49 10° NNW
SJ 16-02 3.5 17:33:04 10° WSW 17:36:45 25° WNW 17:40:25 10° N
YAOGAN 1 2.7 17:35:02 10° SE 17:39:11 47° ENE 17:43:21 10° N
Cosmos 1689 Rocket 2.6 17:41:34 32° ENE 17:41:58 33° E 17:44:35 10° SSE
Cosmos 1844 Rocket 4.4 17:37:13 10° WSW 17:42:10 30° NW 17:47:07 10° N
Cosmos 1553 Rocket 4.1 17:36:28 10° N 17:42:43 53° ENE 17:48:51 10° SSE
Aureole 3 Rocket 2.5 17:40:07 10° N 17:43:24 84° E 17:47:32 10° S
COSMOS 2406 3.2 17:39:30 10° NNW 17:45:20 88° ENE 17:51:05 10° SSE
Cosmos 2082 Rocket 2.5 17:40:13 10° NNW 17:45:43 46° ENE 17:51:10 10° SE
HJ-1C 4.2 17:47:05 30° ENE 17:47:05 30° ENE 17:49:52 10° N
Cosmos 1703 4.4 17:43:36 10° SSW 17:47:20 45° WNW 17:51:05 10° N
Cosmos 1825 Rocket 3.6 17:44:00 10° S 17:48:16 57° E 17:52:38 10° NNE
IRS-1C Rocket 4.1 17:43:25 10° SSE 17:48:40 90° ENE 17:53:57 10° NNW
Meteor 1-27 4.2 17:44:03 10° N 17:49:33 54° ENE 17:54:59 10° SSE
NOSS 3-1 (A) 4.1 17:42:09 10° NW 17:49:44 88° SW 17:58:30 10° SE
X-37B 1.1 17:47:02 10° W 17:50:10 54° SSW 17:51:36 27° SE
deb Kosmos-1763 4.5 17:49:03 10° N 17:52:25 37° ENE 17:52:52 35° E
Cosmos 1812 Rocket 4.3 17:48:22 10° NNW 17:52:40 56° W 17:56:54 10° S
ISS -2.5 17:50:03 10° WNW 17:53:03 28° N 17:53:50 26° NNE
Okean O Rocket 4.1 17:51:07 10° SSW 17:54:48 25° W 17:58:29 10° NW
NOAA 15 4.5 17:50:58 10° SSE 17:56:12 75° ENE 18:01:30 10° N
ATLAS 5 CENTAUR R/B 4.2 17:57:53 10° NNW 17:58:32 10° N 17:59:11 10° N
CZ-4 R/B 1.3 17:54:49 10° SSE 17:58:51 90° SE 18:02:50 10° NNW
Iridium 4 Rocket 3.6 17:55:34 10° N 18:00:57 77° W 18:05:48 10° S
SKYMED 2 4.4 17:57:58 10° N 18:02:13 53° WNW 18:06:26 10° SSW
ERS-2 2.0 17:58:38 10° NNE 18:02:14 88° WNW 18:05:52 10° SSW
CSL-04 Rocket 3.7 17:57:54 10° SE 18:03:11 54° ENE 18:08:35 10° N
Okean-O 2.6 18:01:54 10° SSE 18:06:20 87° W 18:10:47 10° NNW
CZ-4C R/B 4.4 18:05:07 10° NNW 18:09:12 17° N 18:11:46 14° NE
S3M 3.9 18:03:11 10° N 18:09:13 58° ENE 18:15:15 10° SSE
USA 234 4.2 18:05:52 21° NE 18:09:13 33° N 18:14:55 10° WNW
Cosmos 1346 Rocket 2.8 18:07:25 10° SSW 18:11:21 78° WNW 18:15:12 11° N
Cosmos 1655 Rocket 4.1 18:05:36 10° SSE 18:11:35 52° E 18:17:35 10° NNE
Cosmos 2278 Rocket 2.3 18:06:19 10° SSW 18:11:59 79° WNW 18:17:11 13° NNE
Cosmos 1953 Rocket 3.4 18:10:26 10° S 18:14:45 72° E 18:17:58 18° NNE
CZ-2C R/B 4.1 18:09:38 10° S 18:14:56 51° W 18:20:31 10° NNW
SWARM C 4.4 18:14:04 10° S 18:17:22 87° W 18:18:11 49° N
SWARM A 4.2 18:14:10 10° S 18:17:29 81° W 18:18:52 33° N
Cosmos 2292 Rocket 3.4 18:14:41 10° S 18:19:35 68° E 18:20:41 45° NNE
Cosmos 1892 4.5 18:16:09 10° SSE 18:17:22 19° SSE 18:17:22 19° SSE
SAR-Lupe-4 3.9 18:17:50 20° N 18:20:11 65° WNW 18:23:43 10° SSW
Cosmos 44 Rocket 3.3 18:17:25 10° SSW 18:22:15 62° ESE 18:23:19 49° ENE
ARGOS 3.1 18:23:00 10° SSE 18:28:22 88° WSW 18:33:48 10° NNW
DMSP B5D1-3 4.4 18:23:50 10° NNE 18:28:58 87° WNW 18:34:05 10° SSW
Meteor 2-2 Rocket 4.3 18:24:52 10° N 18:30:46 58° ENE 18:34:20 24° SSE
Cosmos 1869 3.7 18:27:16 10° N 18:30:11 48° N 18:30:11 48° N
CZ-4B R/B 4.4 18:35:04 10° NNW 18:36:52 14° WNW 18:38:38 10° W
Cosmos 468 4.4 18:33:21 10° NNW 18:38:38 90° WSW 18:41:13 31° SSE
CZ-2C R/B 2.6 18:33:45 14° NNE 18:38:41 72° ESE 18:44:18 10° S
Cosmos 494 Rocket 3.8 18:37:28 10° NNW 18:42:29 68° NE 18:42:29 68° NE
Cosmos 2150 Rocket 3.9 18:39:36 10° SSW 18:44:46 90° NW 18:45:58 54° NNE
Cosmos 1048 Rocket 4.0 18:42:28 10° NNW 18:47:37 77° WSW 18:49:36 38° S
Cosmos 2297 4.0 18:46:59 10° S 18:51:24 50° SSE 18:51:24 50° SSE
SL-08 RB Rocket 4.2 18:59:18 48° SW 19:00:10 57° W 19:04:36 10° NNW
H-2A R/B 3.9 19:02:48 10° SSW 19:07:09 28° W 19:11:37 10° NW
Cosmos 1125 Rocket 3.8 19:04:14 10° SSW 19:08:41 63° SW 19:08:41 63° SW
Cosmos 2266 Rocket 4.2 19:07:38 10° SSW 19:13:50 67° W 19:19:58 10° N
NOSS 2-2 (C) 4.5 19:15:07 10° NW 19:20:07 76° NW 19:20:07 76° NW
Cosmos 1943 Rocket 4.3 19:22:25 10° SSW 19:23:18 15° SSW 19:23:18 15° SSW
Cosmos 2082 Rocket 3.9 19:24:41 10° NW 19:29:36 30° WSW 19:33:42 14° SSW
ATLAS 2AS CENTAUR R/B 4.3 19:43:47 10° NNW 19:48:21 25° N 19:48:21 25° N
USA 234 4.2 19:53:12 39° NNW 19:53:12 39° NNW 19:57:37 10° NW
CZ-4C R/B 4.3 19:53:48 10° NNW 19:56:58 24° N 19:56:58 24° N
